Location: Newark
(45.2500°N, 7.5833°E)
Time: 12:52:22
(UTC+00:00)

NUDT-PHONESAT - Pass Details

Date: 22 February 2020
Orbit: 487 x 502 km, 97.4° (Epoch: 04 April)

Event Time Altitude Azimuth Distance (km) Brightness Sun altitude
Rises 05:36:26 0° 20° (NNE) 2,589 ? -8.5°
Reaches altitude 10° 05:38:39 10° 30° (NNE) 1,704 ? -8.2°
Maximum altitude 05:42:02 35° 97° (E) 822 ? -7.6°
Drops below altitude 10° 05:45:25 10° 165° (SSE) 1,698 ? -7.0°
Sets 05:47:37 0° 174° (S) 2,578 ? -6.6°
